This is the latest recevied weather packets stored in our database for station/object SP2WPY-13. If no packets are shown the sender has not sent any weather packets the latest 10 day(s).
| Time | Temp. | Humidity | Pressure | Rain* | Wind** | Luminosity | Snow |
|---|---|---|---|---|---|---|---|
| 1787906403 | 20.56° C | 67% | 1022.2 hPa | - | - | - | - |
| 1787906129 | 20.56° C | 69% | 1022.1 hPa | - | - | - | - |
| 1787905809 | 20.56° C | 69% | 1022.1 hPa | - | - | - | - |
| 1787905535 | 20.56° C | 70% | 1022.1 hPa | - | - | - | - |
| 1787905215 | 20° C | 73% | 1022.1 hPa | - | - | - | - |
| 1787904941 | 19.44° C | 75% | 1022 hPa | - | - | - | - |
| 1787904621 | 19.44° C | 76% | 1022.1 hPa | - | - | - | - |
| 1787904301 | 19.44° C | 77% | 1022.1 hPa | - | - | - | - |
| 1787904029 | 18.89° C | 78% | 1022.3 hPa | - | - | - | - |
| 1787903707 | 18.33° C | 77% | 1022.5 hPa | - | - | - | - |
| 1787903438 | 18.89° C | 76% | 1022.6 hPa | - | - | - | - |
| 1787903114 | 18.89° C | 74% | 1022.7 hPa | - | - | - | - |
| 1787902840 | 19.44° C | 72% | 1022.7 hPa | - | - | - | - |
| 1787902521 | 19.44° C | 72% | 1022.7 hPa | - | - | - | - |
| 1787902201 | 18.89° C | 73% | 1022.8 hPa | - | - | - | - |
| 1787901927 | 18.89° C | 74% | 1022.9 hPa | - | - | - | - |
| 1787901607 | 18.89° C | 75% | 1022.8 hPa | - | - | - | - |
| 1787901333 | 18.33° C | 76% | 1022.8 hPa | - | - | - | - |
| 1787901013 | 18.33° C | 75% | 1022.8 hPa | - | - | - | - |
| 1787900739 | 18.33° C | 76% | 1022.9 hPa | - | - | - | - |
| 1787900419 | 18.33° C | 76% | 1022.9 hPa | - | - | - | - |
| 1787900145 | 18.33° C | 78% | 1023 hPa | - | - | - | - |
| 1787899826 | 17.78° C | 78% | 1023 hPa | - | - | - | - |
| 1787899506 | 17.78° C | 80% | 1023.1 hPa | - | - | - | - |
| 1787899233 | 17.78° C | 81% | 1023.1 hPa | - | - | - | - |
* Rain since midnight (hover to see other rain measurements)
** Current wind speed in m/s (hover to see current wind gust speed)